Theta_e
348 349 352 356 355 355 355 356 359 362 362 358 359 365 365 368 368 368 369 369 371 366 363 363 361 362 369 370 366 363 362 363 364 356 353 358 356 356 357 353 353 353 353 353 353 353 350 351 351 351 351 351 352 353 353 353 353 353 353 353 353 353 353 353 353 353 352 352 352 352 352 353 352 352 352 352 353 353 354 353 353 353 352 352 353 353 352 351 350 349 348 348 349 351 351 350 351
349 349 351 355 353 356 360 358 361 362 359 356 359 366 365 367 366 366 366 365 365 361 361 362 361 363 364 363 362 366 364 359 360 359 357 357 356 358 356 352 352 352 353 353 353 352 351 351 351 351 351 351 352 353 353 353 353 352 353 352 352 352 351 351 352 352 352 352 353 353 353 353 352 351 352 351 352 353 354 353 353 353 353 353 354 353 352 351 350 349 349 349 350 352 351 351 351
344 347 351 355 354 356 359 360 362 358 356 356 359 367 365 365 365 365 364 362 361 358 362 363 366 364 358 362 362 367 366 356 356 357 356 357 358 358 355 352 352 352 352 352 352 351 351 350 351 351 350 350 351 352 351 352 353 352 352 352 351 351 350 351 350 350 351 352 353 353 354 354 353 351 351 351 350 352 353 353 352 352 352 353 353 353 353 351 350 349 349 349 351 352 352 351 351
342 349 353 356 359 359 362 366 366 359 356 355 357 365 364 364 364 363 360 359 359 359 362 361 368 365 358 364 362 362 362 356 356 356 357 358 358 357 353 351 351 352 352 352 352 350 351 350 350 350 348 349 350 350 350 352 353 352 351 351 351 351 350 350 350 351 351 351 352 353 354 354 353 352 352 351 351 351 351 352 351 351 350 351 352 353 353 351 349 349 349 349 349 349 350 351 352
351 355 354 355 362 364 365 369 367 360 357 358 359 364 363 362 362 361 360 359 359 362 362 362 369 365 359 363 362 363 361 357 356 356 358 358 358 356 352 351 351 351 351 352 351 349 350 350 350 349 348 349 349 349 351 352 352 352 351 351 351 350 350 350 351 352 352 351 351 353 353 353 353 352 352 352 352 352 352 351 351 351 350 350 351 352 352 351 349 348 348 348 348 347 347 349 351
355 356 354 355 360 362 366 364 361 361 360 363 363 363 362 360 360 359 361 361 361 362 361 367 370 362 361 361 358 359 358 358 357 356 358 358 358 354 351 350 350 351 351 352 351 350 351 350 349 349 350 351 349 350 352 352 351 352 352 352 352 351 350 350 351 352 351 351 352 352 352 351 351 351 351 351 351 352 352 351 351 351 351 351 351 350 351 350 348 348 349 349 349 348 347 348 349
354 359 359 359 361 363 369 363 359 364 362 363 362 361 360 359 360 360 363 365 365 364 364 368 366 363 365 361 359 355 355 358 356 357 358 358 357 353 351 349 351 351 351 352 351 351 352 350 349 350 353 353 350 352 354 353 352 352 352 354 353 352 351 351 351 350 350 351 351 351 351 350 349 349 348 347 347 348 349 350 351 351 350 350 349 350 350 350 349 349 349 349 349 349 348 349 350
353 362 364 365 370 370 370 364 362 367 362 359 359 359 357 358 361 361 363 365 366 365 366 367 363 366 365 360 363 358 354 357 356 358 358 357 356 352 350 350 352 353 352 351 351 352 351 349 350 351 351 351 351 353 354 353 353 353 353 353 353 353 352 351 350 350 350 350 350 351 351 351 350 349 348 348 347 347 348 349 350 349 349 349 349 349 350 350 349 350 349 350 350 349 349 350 351
354 362 365 365 373 371 366 364 365 366 363 360 358 358 357 358 361 361 362 363 365 365 366 366 363 366 363 359 362 358 356 357 357 358 357 357 354 351 350 351 352 353 353 350 351 353 351 350 351 350 348 346 349 353 354 354 354 354 354 353 353 353 352 351 350 349 349 350 350 351 352 352 351 351 351 351 351 350 349 350 350 350 350 350 350 349 350 349 348 349 349 349 349 349 349 350 350
358 362 365 368 371 364 359 361 366 368 363 359 358 356 356 357 361 361 362 364 364 366 366 365 361 363 362 362 362 358 358 357 356 357 357 357 353 351 352 354 352 352 352 350 353 353 352 352 351 351 349 345 345 351 354 354 355 354 354 355 354 354 353 352 352 352 351 351 352 352 352 352 351 351 351 351 351 350 349 351 351 350 351 351 350 349 349 349 348 348 348 348 349 349 349 349 350
363 365 364 369 365 354 355 359 364 369 362 359 358 355 355 358 361 361 364 365 364 366 368 367 363 362 362 364 364 357 354 356 357 356 357 356 353 353 355 356 353 352 351 351 353 353 353 353 351 351 350 348 343 345 352 354 354 354 353 355 354 354 354 353 354 354 353 353 352 352 351 351 350 350 350 350 350 350 349 351 351 351 352 352 350 349 348 348 347 347 347 347 348 349 348 348 349
363 371 369 367 361 354 357 361 363 368 364 361 360 356 355 358 361 363 365 367 367 368 368 369 364 363 364 363 362 355 352 355 356 356 357 356 355 356 357 357 355 354 350 351 353 352 353 353 351 350 350 350 344 341 350 354 353 354 353 354 354 354 354 354 354 353 352 353 352 351 350 350 350 349 349 349 349 349 348 349 350 351 351 351 350 348 348 347 347 347 346 346 347 348 348 349 350
360 373 373 364 366 367 363 364 365 368 366 362 360 357 355 357 362 363 365 367 369 369 367 368 366 365 367 363 360 357 355 354 355 356 356 357 358 359 358 357 357 354 350 352 353 352 354 352 350 349 347 347 345 341 346 352 353 353 354 354 354 354 354 354 354 353 353 352 350 349 348 347 347 347 347 347 348 348 348 347 348 350 351 351 350 347 345 346 346 347 347 347 347 347 348 349 350
361 372 373 363 370 375 367 366 366 366 365 361 359 358 357 358 360 362 366 369 370 368 365 365 365 364 365 363 360 360 358 353 354 356 356 358 358 359 359 358 357 352 351 352 353 353 353 352 349 347 345 343 344 344 345 349 352 353 353 353 353 353 354 354 354 354 353 350 347 347 347 346 346 346 346 346 347 348 348 347 347 349 350 351 351 348 344 344 345 345 347 348 348 347 348 348 349
361 371 373 368 367 370 367 366 368 366 363 362 362 360 360 359 359 363 367 369 368 365 365 363 362 365 363 361 361 360 356 352 353 356 357 358 359 360 359 358 356 352 352 353 353 352 351 352 349 345 343 342 344 347 349 349 350 352 352 353 354 354 354 354 353 352 352 350 349 348 348 348 347 347 347 346 347 347 347 346 346 347 349 351 352 350 346 345 345 345 347 348 349 348 348 347 347
362 369 373 369 358 359 363 365 369 368 365 365 365 363 364 361 359 366 367 367 368 365 369 369 364 366 365 359 358 356 352 351 353 356 358 359 359 360 359 357 356 354 354 353 352 351 351 352 350 345 342 342 344 347 349 349 348 350 353 353 353 353 353 352 351 350 350 350 350 350 350 349 347 347 347 347 346 347 346 345 345 345 347 350 351 351 347 344 344 345 346 348 349 348 347 347 347
357 360 370 365 356 360 363 369 372 368 368 367 367 366 367 364 362 365 364 365 369 368 369 370 365 366 367 360 356 353 352 351 352 357 359 359 359 358 358 357 356 355 355 354 352 351 352 352 349 346 342 341 343 345 347 348 348 347 349 353 352 352 351 350 350 350 350 351 351 350 348 347 345 346 347 346 346 345 345 345 345 344 345 346 348 349 348 344 344 344 345 347 348 349 347 346 348
355 363 372 358 356 366 365 371 371 369 369 367 368 368 367 366 366 365 366 366 367 368 367 367 365 365 365 359 356 354 352 352 353 357 358 358 357 358 358 358 357 356 356 354 353 351 352 352 348 345 343 341 342 345 345 347 349 344 341 348 350 350 350 347 347 348 347 349 351 349 347 346 343 344 345 345 345 345 345 345 345 345 345 345 345 346 346 345 344 344 344 346 347 349 348 347 348
357 371 374 360 363 368 365 367 365 369 371 368 370 369 367 367 367 366 370 371 367 370 371 367 366 365 363 360 359 355 353 353 353 355 357 357 356 357 358 358 358 357 356 355 354 352 351 351 348 345 344 341 340 344 344 345 350 345 336 338 343 346 347 344 341 341 342 344 348 350 349 348 345 342 343 343 344 344 345 345 346 346 345 345 345 345 346 346 346 347 345 345 348 351 349 346 346
357 367 367 363 367 366 365 367 367 372 371 370 369 367 369 366 366 367 370 371 369 373 373 368 366 365 366 363 358 355 354 354 353 354 355 355 355 357 358 358 358 358 356 354 355 353 351 351 348 346 345 342 339 341 342 343 348 346 337 335 336 338 341 340 337 337 337 339 346 351 351 350 348 344 343 343 344 344 344 346 346 347 347 347 347 346 347 347 348 350 348 346 349 351 349 347 345
353 363 362 358 362 364 364 364 367 370 367 369 366 366 370 365 366 368 368 371 370 371 369 368 366 364 366 365 359 356 355 355 354 354 354 354 354 356 357 358 358 358 357 355 355 354 352 351 349 349 347 343 340 340 340 341 345 345 339 336 334 333 336 337 335 336 336 338 345 350 351 351 351 349 347 345 345 344 344 346 347 347 348 348 349 348 346 348 349 350 349 348 348 350 350 348 347
349 353 357 355 359 365 360 359 363 366 367 365 365 368 369 364 366 367 367 373 373 368 366 365 364 363 365 364 360 357 356 357 356 355 355 353 353 355 356 358 357 357 357 356 355 353 353 351 350 350 348 344 342 340 339 339 341 342 339 336 335 333 333 334 336 340 341 340 346 349 350 351 352 351 351 349 348 346 344 345 347 348 348 348 350 348 346 349 350 349 349 348 348 349 350 350 349
351 349 350 350 355 359 356 358 360 363 365 363 366 368 365 365 367 366 365 371 370 363 364 363 361 363 361 359 359 360 362 360 357 357 355 353 354 355 355 356 357 357 356 356 356 353 352 349 349 351 348 345 344 342 339 339 339 337 336 335 334 332 331 335 337 340 344 343 345 348 349 349 351 352 352 351 351 351 347 345 348 350 350 349 349 348 347 350 351 350 349 348 348 350 351 350 350
351 351 349 350 351 354 358 362 364 367 368 367 369 366 366 369 368 365 365 368 366 361 362 361 360 361 358 358 360 362 362 358 356 357 355 353 354 354 355 356 356 356 356 357 356 355 352 347 346 348 349 349 350 349 345 343 341 336 337 340 338 336 337 341 340 340 344 344 344 345 345 346 349 350 349 348 350 352 350 347 348 352 353 351 350 350 350 352 352 351 350 349 350 352 352 351 349
350 350 348 350 351 354 361 366 372 376 374 373 371 367 369 373 370 366 369 370 363 361 362 361 361 361 360 359 359 361 360 358 357 357 355 352 354 354 354 355 354 356 356 356 356 357 356 352 349 350 353 354 354 355 352 351 347 340 344 348 347 347 347 347 347 347 348 348 346 344 344 346 349 348 346 345 347 350 351 350 348 351 355 353 350 351 351 353 353 352 352 351 352 353 353 351 349
349 349 347 350 351 356 363 365 372 376 373 372 369 369 371 372 370 364 368 370 361 360 361 360 362 362 361 359 359 360 361 361 357 357 356 352 353 354 354 353 353 355 356 356 356 356 357 357 356 356 356 355 355 356 354 354 352 346 349 352 351 352 351 350 351 352 351 350 349 346 344 347 348 347 345 345 344 344 348 351 349 350 354 354 351 350 351 352 353 353 353 353 354 353 353 352 350
348 346 347 352 352 355 360 359 368 373 369 370 369 368 369 367 369 365 364 365 360 363 362 359 361 361 360 360 360 360 360 361 358 357 355 352 354 354 354 353 351 353 354 356 355 355 356 357 358 358 357 356 356 356 354 354 354 351 352 353 353 354 352 352 353 352 352 351 350 349 346 347 348 348 348 348 347 345 345 349 350 350 353 353 350 348 350 353 353 353 353 353 353 353 353 352 350
344 345 347 352 353 354 357 357 366 371 364 371 376 369 367 364 368 370 362 361 362 364 363 360 361 362 361 361 362 361 360 360 359 359 357 354 355 355 354 353 351 351 353 355 354 354 355 356 357 358 357 356 356 357 355 354 354 352 352 353 354 354 353 353 353 352 351 350 350 349 348 348 347 348 351 351 351 350 345 347 349 351 353 352 349 348 350 352 354 353 353 353 353 353 353 352 350
345 354 354 348 350 355 357 357 366 370 366 376 377 362 363 366 368 368 361 361 363 362 363 362 361 361 360 362 362 362 360 359 359 359 359 357 356 356 354 352 352 351 351 355 353 352 354 355 356 357 357 357 357 356 355 354 354 354 353 354 354 353 353 352 351 351 351 351 350 349 349 349 347 347 350 352 353 353 349 348 349 351 352 350 348 348 348 350 352 352 352 352 351 352 351 351 350
343 353 357 348 345 353 356 357 368 371 369 380 368 349 359 373 369 365 361 363 363 362 362 361 361 361 360 362 361 361 360 358 360 359 359 359 357 357 355 354 354 352 351 352 352 352 353 354 356 357 356 357 357 354 354 353 354 354 354 355 354 353 353 351 350 352 352 351 350 350 350 349 348 347 349 352 354 354 352 351 350 351 351 349 349 349 348 349 350 351 350 350 350 350 349 349 349
353 342 351 356 341 345 356 358 368 368 367 376 360 347 361 373 368 363 362 363 362 363 363 360 361 360 360 362 361 361 360 358 359 359 359 359 357 356 354 354 354 353 352 351 352 351 353 356 356 356 355 355 356 354 354 354 353 354 354 354 355 355 354 353 354 354 353 351 350 350 350 350 350 351 351 352 354 354 353 352 351 352 352 351 351 350 349 349 350 350 350 350 350 350 349 348 348
375 335 335 351 337 342 358 356 364 367 365 368 357 352 361 365 363 362 360 360 363 364 362 361 361 361 362 363 361 361 360 359 358 358 359 359 358 356 354 353 353 354 354 352 351 351 352 355 356 356 354 356 356 354 355 357 355 354 354 354 355 356 355 354 354 354 353 351 350 351 351 352 353 353 353 353 354 354 352 353 353 353 353 353 353 354 353 352 352 350 351 351 351 349 349 349 348
367 336 327 337 333 340 355 354 359 362 364 364 359 360 365 363 361 360 359 360 362 363 363 363 361 361 362 362 361 362 361 361 359 358 358 358 358 356 354 352 352 353 354 353 351 351 353 354 355 356 355 356 355 353 355 357 357 356 355 356 356 356 355 354 354 354 353 352 351 352 352 353 353 353 353 354 355 353 352 353 354 354 353 353 354 355 355 354 353 352 352 352 350 349 349 349 349
342 339 331 333 335 339 347 356 357 355 359 363 363 362 365 366 361 359 361 360 360 362 362 362 361 361 362 362 361 361 362 363 361 358 358 358 358 356 355 353 352 352 353 354 352 352 355 354 354 354 354 356 355 353 355 357 358 358 358 357 356 356 355 354 354 353 353 352 352 352 352 352 351 352 354 355 355 355 353 353 353 355 355 354 353 354 354 354 354 353 352 351 350 349 348 349 349
330 331 329 329 335 336 341 352 355 356 356 360 362 360 362 364 361 360 360 360 362 361 360 360 361 361 362 362 362 361 362 362 360 358 357 358 357 357 357 355 354 353 353 354 355 354 354 355 354 354 355 356 355 354 355 357 358 358 357 357 355 355 354 354 354 354 353 353 353 353 353 352 351 352 353 354 355 355 355 353 353 355 356 356 355 354 354 353 353 352 351 350 351 350 349 349 349
333 332 330 328 329 332 341 350 352 355 355 361 362 357 361 364 361 362 359 358 360 360 359 358 361 362 361 361 361 361 362 361 359 357 357 358 357 357 358 357 357 356 354 355 356 355 355 356 355 356 356 356 355 355 355 356 356 356 356 355 354 354 354 354 355 354 354 353 353 354 353 352 351 351 352 352 352 354 356 355 354 354 356 356 355 353 353 353 352 351 351 351 351 351 351 352 351
335 334 331 328 327 329 340 348 349 351 353 358 360 356 360 363 361 361 360 358 358 361 361 359 361 362 361 361 361 361 361 360 358 357 358 358 356 356 357 357 356 357 356 355 356 356 356 356 356 357 357 356 356 356 356 356 355 355 355 354 354 354 354 354 354 353 354 352 351 350 349 350 352 352 351 352 353 354 356 356 355 355 356 355 354 353 352 353 352 351 351 352 352 351 351 353 351
333 332 330 328 328 334 341 345 349 352 354 356 359 358 359 361 360 361 362 359 358 363 364 360 361 362 362 362 361 361 362 361 360 358 358 357 354 354 356 355 355 357 357 355 355 354 355 357 357 357 357 356 357 356 356 356 356 355 355 354 353 353 352 351 352 352 351 351 349 348 349 352 354 353 354 355 355 355 355 356 356 355 355 355 355 352 350 351 352 351 351 351 352 351 351 353 352
332 331 330 327 330 335 335 342 353 350 352 361 359 355 357 362 361 362 362 359 360 365 368 363 360 363 363 362 362 363 366 365 362 360 359 356 353 353 354 353 354 356 356 356 356 354 354 355 356 357 357 357 357 357 357 356 355 354 353 352 351 350 350 350 351 350 350 351 351 352 354 355 355 355 356 357 356 356 356 356 355 355 354 355 355 351 349 349 350 351 351 351 352 352 352 352 352
331 334 328 324 331 328 322 336 353 349 352 362 361 360 367 368 360 362 362 362 364 365 370 367 361 362 361 361 363 364 366 365 363 362 360 356 352 352 353 353 354 354 355 356 356 355 354 354 355 356 356 357 357 357 357 356 355 353 352 350 351 352 352 351 351 352 353 353 353 354 355 355 355 356 357 357 356 355 356 355 354 355 354 355 355 353 352 352 351 351 350 351 352 353 353 352 352
327 334 330 326 331 327 325 337 349 349 350 357 358 356 367 372 360 362 365 365 366 364 370 368 360 361 361 362 364 363 364 363 362 363 360 356 353 351 351 352 353 353 355 356 356 356 355 355 355 355 355 356 357 357 356 355 354 353 352 352 353 354 354 354 354 354 355 354 354 355 355 355 355 355 356 356 355 355 355 355 354 355 355 355 355 355 354 354 352 351 350 351 352 353 354 352 352
320 330 336 332 333 331 333 340 344 344 342 350 350 337 347 371 368 367 366 365 366 363 368 368 363 364 362 364 366 362 363 362 361 362 360 358 355 353 351 350 352 353 355 356 356 355 355 355 354 354 356 356 356 356 356 355 355 354 353 352 353 354 355 355 355 355 354 354 354 354 354 355 354 354 355 356 356 355 354 355 355 355 355 354 355 355 354 354 352 351 351 353 353 354 353 351 352
315 327 336 333 336 332 330 335 338 335 336 349 349 333 338 354 358 367 369 366 367 362 362 367 366 364 363 365 365 362 362 361 361 361 359 359 357 355 353 350 351 353 354 355 355 355 354 354 354 354 355 356 356 356 357 357 356 355 353 352 352 354 355 355 354 354 354 354 354 353 353 353 353 354 355 354 354 353 353 354 355 354 354 354 355 355 354 353 352 352 352 353 354 354 354 352 352
317 332 337 331 332 330 327 330 330 332 338 342 345 344 340 341 351 368 367 364 367 363 362 367 366 363 362 364 364 362 361 360 361 360 359 359 357 357 355 353 352 353 354 354 355 355 354 354 353 353 354 355 356 356 357 357 355 355 353 352 353 354 355 354 354 354 354 354 353 352 353 353 354 354 352 350 348 348 350 351 351 351 352 353 355 355 354 353 352 352 352 352 352 353 354 353 352
325 334 333 329 327 330 332 326 326 331 333 328 335 343 337 339 357 366 361 363 366 365 364 366 367 363 361 362 362 362 359 358 359 359 359 358 356 357 356 355 354 354 354 353 354 355 354 354 353 353 353 354 355 355 356 355 355 354 353 354 355 355 354 354 353 354 354 353 353 352 352 352 350 348 347 348 348 347 346 346 348 349 349 350 353 354 353 351 350 352 353 352 352 353 354 353 351
330 329 329 332 327 330 331 327 330 329 324 321 328 335 332 338 351 352 352 358 361 363 363 363 366 363 360 361 361 360 359 358 359 358 357 354 353 354 354 354 353 353 353 352 354 353 353 353 353 354 354 353 354 355 355 355 354 354 354 355 355 354 353 353 353 353 353 351 349 351 351 348 343 340 341 347 350 350 346 346 349 348 346 348 350 349 348 345 345 349 352 352 353 354 353 353 352
331 329 331 330 328 336 343 345 341 325 320 324 326 330 334 335 344 350 355 361 362 362 362 362 364 361 360 361 359 359 359 358 357 357 354 350 349 350 350 351 350 350 351 352 353 353 353 354 354 355 355 354 355 355 356 355 355 355 354 354 353 353 353 352 352 351 350 346 344 347 348 345 343 340 340 345 349 350 348 348 350 348 347 348 346 344 344 341 340 344 348 349 351 352 352 353 353
328 332 330 322 326 338 342 343 335 317 318 327 325 327 330 326 336 351 357 364 364 360 362 365 363 361 361 359 357 358 358 355 354 355 353 350 350 349 348 348 348 348 350 351 352 353 355 356 356 355 355 355 356 356 356 355 354 354 354 353 353 352 352 351 350 348 346 344 343 345 343 342 343 342 341 343 343 344 345 347 349 349 347 346 344 342 342 341 341 343 345 345 345 346 347 350 352
327 331 327 318 319 323 325 328 326 318 321 328 327 330 330 330 342 353 353 357 358 358 361 362 360 360 361 358 356 358 356 353 353 353 353 352 351 349 349 349 348 347 348 350 352 354 357 357 356 356 356 356 356 356 356 354 353 353 353 352 352 352 351 350 350 348 345 343 342 341 339 339 341 341 342 342 340 340 342 345 347 347 344 343 343 343 342 342 343 344 343 343 342 341 342 344 346
325 324 319 316 317 316 318 325 323 321 323 327 330 330 327 331 346 357 361 359 357 359 359 358 358 359 358 356 356 357 355 353 353 353 353 352 350 350 350 349 349 349 349 351 353 356 358 357 356 356 356 356 356 355 354 353 353 352 352 351 350 350 349 347 348 347 343 341 340 340 339 338 338 338 340 341 340 340 341 342 343 342 341 341 340 340 340 340 341 342 342 341 340 340 341 341 341
326 329 325 318 318 317 317 320 319 320 323 324 327 328 324 328 339 353 361 358 357 358 358 358 358 357 357 356 356 356 355 354 352 353 353 352 350 350 350 350 350 352 352 353 355 357 358 357 357 356 356 356 355 354 353 352 352 351 351 350 349 348 346 343 342 341 340 340 340 340 339 338 337 337 339 339 338 340 340 340 340 340 339 338 337 336 336 338 339 340 341 340 340 340 341 341 340
324 329 323 316 321 322 317 318 320 319 321 321 322 327 333 340 347 355 354 353 358 359 358 360 358 357 356 357 359 357 355 354 352 353 354 352 350 350 350 350 351 352 354 355 357 358 358 358 357 356 355 355 354 352 352 352 351 351 350 348 347 343 342 341 339 338 340 338 336 337 338 338 339 338 338 338 338 339 339 338 338 339 338 336 335 336 338 339 340 340 340 340 340 340 340 340 340
323 320 317 319 327 323 314 315 321 319 318 320 322 329 340 346 354 359 355 355 360 361 360 360 359 357 356 359 361 358 356 355 353 353 354 352 351 350 351 351 351 352 355 357 357 357 358 358 356 355 354 354 352 351 352 350 349 349 347 345 343 341 340 341 341 341 340 336 334 338 340 339 338 338 338 338 338 336 336 336 336 337 337 336 336 338 339 339 339 338 338 338 339 339 339 339 339
323 314 319 326 326 326 322 317 320 321 317 318 323 329 334 336 347 359 357 356 360 362 363 361 359 356 356 359 359 359 358 355 354 354 353 352 351 350 351 351 350 353 355 357 357 357 358 357 356 354 353 352 351 351 350 348 346 345 343 342 341 341 340 340 341 341 339 337 338 340 340 338 337 337 338 337 335 335 335 337 337 338 338 338 337 337 336 337 337 337 338 338 339 339 339 339 339
324 318 326 326 315 318 322 316 318 320 318 319 322 327 330 332 341 352 356 357 360 364 363 361 360 356 356 359 359 359 359 357 356 355 354 354 352 350 352 351 351 353 355 356 357 357 357 355 354 353 351 352 352 350 348 345 343 343 343 342 341 342 341 340 339 339 339 339 339 338 338 337 336 336 336 335 335 335 336 337 338 339 339 338 336 336 336 337 337 338 338 337 338 338 338 339 339
325 321 325 324 318 319 319 316 320 322 323 324 321 322 329 340 351 353 355 358 359 363 364 362 359 356 357 359 360 359 360 358 357 356 355 355 353 351 351 352 352 354 355 356 356 355 354 353 353 352 351 350 349 347 345 343 342 342 342 341 341 341 341 341 339 339 340 340 337 337 336 335 335 336 335 334 334 335 337 337 337 338 337 336 336 337 339 339 338 337 336 336 336 337 338 338 339
319 317 316 315 318 321 319 319 322 323 327 329 326 325 333 351 357 353 354 356 357 361 364 363 360 356 356 359 360 360 359 358 357 356 356 356 353 352 352 352 353 353 354 355 354 353 353 352 351 350 348 346 345 345 344 343 343 343 343 341 340 339 340 342 340 339 340 339 337 336 336 335 335 335 335 334 335 337 338 338 337 337 336 335 336 338 338 338 337 336 336 335 335 336 336 336 336
320 317 316 314 315 317 318 321 323 323 325 328 328 327 338 359 355 347 352 353 354 359 360 361 359 354 355 358 360 361 360 358 357 355 355 354 352 351 351 351 351 351 352 352 352 352 351 351 349 346 345 344 343 344 344 343 343 343 342 340 340 340 340 341 340 340 341 339 336 336 335 336 336 335 336 336 337 339 339 338 338 338 336 336 337 337 337 337 336 336 336 335 335 335 334 334 334
Wind_Speed
12 11 11 12 9 5 1 1 1 0 1 1 2 1 1 2 2 2 3 4 3 3 5 7 5 2 4 4 9 6 5 1 3 4 3 5 25 31 22 27 31 29 28 26 24 23 22 20 19 19 18 18 18 16 16 15 15 16 16 16 15 16 16 16 16 17 17 17 16 15 15 14 14 14 14 14 14 14 14 14 13 13 12 11 10 10 10 11 10 10 11 11 10 11 12 12 13
13 13 12 10 7 3 0 1 1 1 1 1 2 1 1 3 3 2 3 4 4 5 7 7 7 4 2 8 7 3 6 7 3 5 5 19 29 23 24 30 32 31 30 27 25 24 22 21 20 19 18 18 18 17 16 15 15 15 16 16 16 16 16 16 16 16 16 16 16 15 14 14 13 13 13 13 13 13 13 13 12 12 11 11 10 9 9 9 9 10 11 10 10 10 11 12 13
15 14 13 9 3 1 1 1 1 0 1 1 2 1 1 2 1 1 3 4 3 2 3 5 5 5 3 8 4 3 3 6 8 8 9 23 21 19 30 31 32 33 30 28 27 25 23 22 21 19 18 18 17 17 17 16 15 15 15 15 16 16 16 16 15 16 16 16 15 14 14 13 13 13 13 12 12 12 12 12 11 10 10 9 9 9 8 8 8 9 9 10 10 9 10 11 13
15 13 10 7 1 1 1 1 1 1 1 1 1 2 2 4 1 2 4 3 3 2 1 1 4 3 2 9 4 5 5 3 9 8 10 18 20 28 34 32 34 32 30 29 27 26 24 22 21 19 18 18 17 17 17 16 16 15 15 15 15 15 15 15 15 15 15 15 15 14 13 13 12 12 12 12 12 11 12 11 10 10 9 8 8 8 7 6 6 7 7 8 8 8 9 9 11
13 12 8 5 1 0 1 1 0 0 1 2 1 2 2 4 1 3 3 1 3 3 1 1 4 3 2 6 2 4 5 6 8 9 13 19 27 35 35 34 35 32 31 28 28 27 24 22 20 19 17 17 17 17 17 17 16 15 14 14 14 14 15 15 15 15 15 15 15 14 13 12 12 12 12 11 11 11 11 11 11 10 9 8 8 7 7 6 6 6 6 7 7 7 9 9 10
14 11 6 2 0 0 1 1 1 2 1 2 1 1 2 3 1 0 2 3 1 2 2 1 2 2 3 3 3 3 4 8 9 11 18 24 31 36 36 36 35 32 31 28 28 26 24 22 19 18 18 17 17 17 17 17 17 15 14 13 13 14 14 14 14 14 14 14 14 14 13 12 12 11 11 11 11 10 11 10 10 10 9 9 8 8 7 7 6 6 6 7 7 8 9 9 10
15 8 1 1 0 1 2 2 2 2 1 2 1 1 1 2 1 2 2 1 3 2 3 4 2 4 3 2 3 5 5 12 10 16 24 28 32 36 37 35 34 31 29 28 28 26 24 22 19 18 18 18 17 16 16 16 16 16 15 13 13 13 13 13 13 13 13 13 13 13 12 12 12 11 11 11 11 10 10 10 10 10 9 8 8 8 7 7 7 7 8 8 9 9 10 10 11
13 4 1 2 1 1 2 2 2 1 2 2 2 1 2 1 2 1 2 1 2 3 4 4 2 4 3 2 3 6 10 17 16 25 30 30 33 36 36 34 32 29 28 29 28 26 23 21 20 18 18 18 18 17 16 15 15 15 15 14 14 13 13 13 13 13 13 13 13 12 12 11 11 11 10 10 10 10 10 10 9 9 9 8 7 7 7 8 7 8 8 9 9 9 10 11 12
7 1 1 2 1 2 2 2 2 1 1 2 2 3 2 1 2 0 3 3 1 2 3 4 2 4 4 6 4 4 10 19 26 30 30 31 34 36 35 32 32 29 28 29 27 25 22 21 20 19 18 18 19 18 17 15 15 15 15 15 14 14 13 13 13 13 12 12 12 11 11 10 10 10 10 9 9 9 9 9 9 8 8 7 7 7 7 7 7 7 8 8 9 9 10 10 12
2 0 1 1 2 3 3 2 2 2 2 1 3 2 1 0 0 2 4 4 2 2 3 3 6 6 6 7 4 2 6 19 29 28 28 31 33 34 31 29 31 30 29 29 27 25 23 21 20 19 18 18 19 19 18 16 14 14 15 14 14 13 13 13 13 13 12 12 11 11 11 10 9 9 9 9 9 9 9 9 8 8 8 7 6 6 6 6 6 6 6 7 8 8 9 10 11
0 1 1 1 3 2 1 0 1 2 1 2 4 2 2 3 1 1 3 4 1 1 2 2 5 5 6 4 1 2 5 20 27 27 29 30 31 31 28 28 30 30 30 30 28 25 23 21 20 19 17 17 18 19 18 17 15 13 13 14 13 13 12 12 12 12 12 11 11 11 11 10 9 9 8 8 8 8 8 8 8 8 7 7 6 5 5 4 4 5 5 5 7 7 7 8 10
1 1 1 2 2 1 1 1 1 1 0 1 4 3 1 5 3 1 2 4 2 2 2 2 2 2 5 4 0 2 6 17 25 27 30 30 30 28 27 30 29 28 30 30 28 26 24 22 21 19 18 17 17 19 18 17 16 13 13 13 13 13 13 12 12 11 12 11 11 11 11 10 9 9 8 8 7 7 6 6 7 6 6 5 5 5 5 4 3 4 5 5 6 7 6 7 9
1 2 3 1 2 3 2 2 2 3 1 2 2 4 2 3 2 2 2 3 1 4 4 3 1 2 4 3 0 1 3 12 22 26 29 31 29 27 29 30 28 28 30 30 28 26 24 23 22 21 19 18 17 18 18 18 17 15 15 14 13 13 13 12 12 12 12 11 11 11 11 10 9 8 8 8 7 7 6 5 6 6 5 5 4 4 4 4 4 3 3 5 6 6 7 7 8
3 2 3 1 1 3 3 2 1 2 1 3 2 6 6 4 3 3 2 3 3 4 2 4 1 5 4 3 1 2 2 10 20 24 28 30 28 28 29 29 29 29 30 30 28 26 25 23 23 22 20 20 19 18 17 17 17 16 15 14 14 13 13 12 12 12 11 11 11 11 11 10 9 8 8 8 8 8 7 6 6 6 6 6 5 4 3 4 4 3 3 4 5 6 7 7 7
5 1 3 1 3 2 1 2 2 3 2 4 3 7 6 3 4 3 2 3 3 1 2 1 1 4 5 7 5 4 6 14 17 22 29 29 27 27 27 28 27 29 30 29 27 27 25 24 23 22 21 21 20 19 17 16 17 16 15 15 14 14 14 13 12 12 11 10 10 10 9 9 8 8 7 7 7 8 8 7 7 7 7 6 6 4 4 3 3 3 3 3 3 5 7 7 7
4 1 3 2 2 1 2 2 3 4 2 4 5 7 6 2 4 2 1 2 3 1 2 0 1 2 5 6 7 9 14 18 19 24 29 28 27 26 25 25 25 26 27 27 27 27 26 25 23 22 21 20 20 20 18 16 16 17 16 15 14 14 14 12 12 12 11 10 10 9 8 8 8 7 7 7 8 8 8 7 7 6 6 7 6 5 4 3 3 2 2 3 3 3 5 6 7
2 2 2 2 1 1 1 2 3 4 3 4 6 5 6 3 3 1 3 4 4 2 2 1 2 2 4 5 12 16 20 22 22 26 28 26 26 25 24 23 23 24 25 26 27 27 27 26 24 23 21 20 20 19 18 17 16 16 16 16 15 15 14 13 13 12 12 11 10 9 9 8 8 8 8 9 9 9 8 7 6 5 5 6 6 6 5 4 3 2 2 2 3 3 3 5 6
2 1 1 1 1 1 1 3 4 5 5 6 6 5 7 6 4 3 3 5 4 3 3 2 3 4 6 10 16 19 21 23 23 27 26 23 22 21 21 23 23 23 24 25 26 27 28 27 25 23 22 21 20 19 19 18 16 16 16 17 17 16 15 14 14 13 13 12 11 10 10 9 9 9 9 10 11 10 9 7 6 4 4 4 5 5 5 5 5 3 2 2 3 3 4 5 6
3 2 3 1 3 2 2 5 6 5 6 7 6 6 7 6 6 4 3 4 4 3 2 3 4 5 8 10 14 17 19 21 21 25 25 22 21 21 20 21 23 23 24 25 26 27 28 28 26 24 23 21 20 20 19 18 18 17 17 17 17 17 16 16 16 15 15 14 12 11 11 10 10 10 10 10 10 10 9 7 6 5 4 4 4 5 5 4 5 5 3 3 3 4 5 5 6
2 3 3 3 4 2 2 6 6 6 8 8 7 6 6 6 5 3 4 6 4 4 3 3 4 7 8 6 8 13 16 17 20 23 23 21 22 23 22 22 23 24 25 26 26 27 28 28 27 25 23 22 21 21 20 19 19 18 17 17 17 17 17 17 17 16 16 14 12 11 11 11 11 11 11 11 11 10 10 9 8 6 6 6 6 6 6 5 5 6 5 4 5 6 6 5 6
1 3 4 5 5 3 3 6 6 7 9 8 8 6 6 7 5 3 6 6 2 4 5 6 9 11 9 6 5 10 13 13 18 20 20 20 21 22 23 24 25 26 26 25 25 26 27 28 27 26 24 23 23 22 22 21 20 18 17 17 17 17 17 17 17 16 16 15 13 12 11 11 10 10 11 12 12 12 11 11 11 9 8 7 8 8 8 7 7 7 7 7 6 7 7 6 6
2 3 6 8 6 4 4 5 7 8 7 7 9 7 6 6 4 6 9 6 4 6 6 6 9 11 9 9 7 7 8 9 14 15 15 18 20 21 23 24 25 25 25 25 25 26 27 27 27 26 25 24 23 23 22 21 21 20 19 17 17 17 17 17 17 16 16 15 14 12 11 11 12 11 11 12 13 13 14 14 14 13 10 9 9 9 9 9 8 8 9 9 7 6 7 7 7
4 3 6 8 6 6 5 5 7 7 6 8 9 7 6 8 5 8 10 6 5 6 8 7 6 8 10 11 8 7 7 7 10 10 13 19 19 21 24 24 25 25 25 26 26 26 26 27 27 26 25 24 23 22 21 20 20 20 19 17 16 17 17 16 16 16 15 14 13 13 13 13 14 13 12 13 15 16 16 16 16 15 13 10 10 10 10 9 8 8 9 9 8 7 6 7 8
6 4 5 7 7 8 6 5 6 6 6 7 7 6 8 9 6 7 8 5 4 7 8 7 6 8 10 9 8 8 8 8 10 10 15 21 20 23 26 25 26 26 26 27 27 26 27 27 27 26 25 24 22 20 20 20 19 19 18 17 16 16 16 16 16 15 14 13 13 13 13 13 13 14 14 14 17 19 18 18 17 17 15 12 11 10 11 10 8 9 10 10 9 9 7 7 9
5 5 5 6 6 7 8 7 6 6 5 4 6 6 7 9 7 7 8 3 6 8 7 7 8 8 7 7 7 7 7 8 10 10 14 20 20 21 24 24 24 25 26 27 27 26 28 28 27 26 25 24 22 20 19 19 18 18 19 18 17 17 16 15 15 15 14 13 13 13 14 15 14 13 11 9 13 19 20 21 19 17 16 14 13 12 11 10 9 9 10 11 10 11 10 8 9
4 7 6 7 7 8 8 7 6 5 4 4 6 4 6 7 5 5 6 6 7 8 9 8 8 7 6 7 6 6 6 6 6 8 12 18 18 16 19 22 20 23 26 27 28 27 28 28 27 27 25 24 23 22 21 18 18 19 19 18 17 18 16 14 15 15 15 15 14 14 14 16 16 10 5 3 5 10 16 22 21 17 16 14 14 13 12 11 10 10 9 11 11 12 12 10 9
4 8 8 9 10 8 7 7 6 5 3 3 6 5 5 5 3 3 5 7 9 8 9 9 9 8 7 7 7 7 7 7 8 9 10 14 16 14 19 23 19 18 24 26 26 26 28 27 27 28 25 24 24 24 23 20 19 19 18 16 17 19 17 15 16 15 15 17 16 15 13 15 15 7 3 2 1 2 9 19 21 18 16 14 13 13 12 12 12 11 9 10 11 12 12 12 11
4 8 8 9 10 7 7 8 6 4 3 3 6 3 2 2 2 5 8 8 10 10 9 9 9 8 8 7 6 6 7 9 11 11 10 12 14 14 19 26 21 15 21 28 27 23 25 26 28 30 26 24 26 26 25 23 21 20 18 17 18 19 17 15 16 13 11 14 16 15 14 14 14 8 3 2 2 3 4 13 18 17 14 13 13 12 13 13 13 12 10 9 11 11 12 13 13
4 7 7 7 8 6 6 7 6 5 4 5 6 2 2 3 5 7 12 10 10 11 9 9 8 7 8 7 6 5 7 9 10 10 11 12 13 14 20 27 24 19 24 29 27 22 22 26 29 31 28 25 26 27 25 24 23 21 19 16 17 20 18 15 16 12 7 9 13 15 14 15 16 11 4 1 3 5 6 9 12 13 12 11 12 12 12 14 14 13 11 10 11 13 13 13 13
2 3 5 4 5 3 6 5 6 5 4 7 6 1 4 6 7 9 13 12 11 10 9 9 8 7 7 7 7 6 7 9 9 11 13 13 12 12 17 20 16 18 27 30 26 24 23 26 30 30 29 25 24 24 22 23 24 21 18 14 13 17 17 14 13 12 8 7 9 11 13 15 15 12 8 5 2 4 7 9 10 10 11 11 12 12 12 13 14 15 13 12 13 15 15 14 14
1 1 3 2 2 3 6 4 8 5 2 7 8 1 5 6 7 11 13 13 13 11 9 10 8 7 7 7 8 7 7 9 12 14 15 16 13 10 13 13 9 9 19 29 27 25 26 28 31 30 29 26 21 20 20 22 23 21 19 16 13 13 14 14 12 11 9 7 7 11 13 13 12 10 8 6 3 2 5 8 8 8 9 10 11 11 11 13 14 15 15 15 15 16 17 16 15
1 0 3 1 2 2 5 5 9 8 2 7 7 2 4 5 8 10 12 13 13 12 10 10 9 9 8 7 8 7 7 9 12 14 15 17 15 13 12 10 11 8 8 24 29 26 27 29 32 30 29 28 23 19 18 20 21 20 19 17 15 14 13 15 14 12 10 7 9 13 13 12 11 9 7 6 5 4 3 4 5 5 6 7 9 10 11 12 14 15 16 16 16 17 17 17 16
2 2 3 2 3 3 3 5 9 7 4 5 5 3 2 4 8 8 10 13 12 11 10 11 11 10 9 7 7 7 6 7 9 12 15 17 15 15 16 12 13 10 5 18 27 26 27 30 31 29 29 28 24 21 19 19 19 19 19 17 16 15 13 14 14 13 11 8 10 12 11 11 10 9 8 7 6 5 4 4 4 4 4 4 6 9 10 10 12 16 17 16 17 18 17 17 17
3 1 3 3 3 5 3 3 6 4 4 6 5 4 5 5 8 8 8 11 11 11 11 11 10 9 8 7 7 6 7 7 7 11 15 17 15 15 18 17 16 16 12 15 23 26 26 28 30 28 27 26 24 23 21 20 19 17 17 16 15 14 13 13 13 12 11 10 10 10 11 10 10 10 9 8 7 6 6 6 5 5 5 5 6 9 10 9 11 14 15 16 17 19 17 16 16
4 2 3 3 3 6 6 3 5 7 5 6 6 6 8 6 7 8 7 9 11 11 11 10 10 10 9 7 7 7 7 7 8 12 15 17 16 14 17 21 21 22 19 15 18 22 24 25 27 26 26 25 25 24 21 20 18 17 16 15 14 14 14 13 12 12 11 11 11 11 11 11 10 10 9 9 9 8 8 8 7 7 6 5 7 10 11 11 11 11 13 14 16 17 17 17 16
8 8 3 3 3 4 7 5 6 11 7 4 7 6 7 6 8 8 7 7 9 9 8 8 8 9 9 8 7 8 8 8 9 14 17 15 13 13 17 20 20 21 20 17 18 20 23 25 26 25 25 24 24 22 20 19 17 16 15 14 13 13 13 13 12 12 11 11 11 11 11 11 11 10 9 10 10 10 9 8 7 7 7 6 8 12 13 12 11 12 11 10 10 13 16 16 16
11 11 6 4 3 4 6 5 7 12 8 5 8 5 5 7 8 8 6 5 6 7 6 7 8 8 8 8 8 8 8 7 8 13 16 15 13 14 17 16 16 17 18 19 19 21 22 24 24 23 22 22 22 21 20 19 17 16 14 14 13 13 13 12 11 12 12 12 11 12 12 11 10 9 9 9 10 11 10 8 8 8 8 7 7 10 13 12 12 11 8 6 7 10 12 12 13
11 10 7 4 3 5 6 8 10 10 7 5 7 4 5 6 7 6 5 5 6 6 7 8 9 9 8 8 9 8 6 4 6 10 13 15 15 13 14 15 15 15 14 16 18 19 19 20 20 20 19 19 19 19 19 17 16 15 13 13 14 14 13 12 11 11 12 12 11 11 11 10 9 8 8 8 9 10 8 8 8 8 7 7 5 4 7 9 9 9 8 7 8 9 10 9 10
10 8 6 5 4 4 4 7 11 9 5 5 6 4 4 6 5 6 6 6 6 5 6 8 9 9 8 8 8 7 6 5 6 8 11 14 16 14 12 14 17 16 12 12 15 15 15 16 17 17 16 16 15 15 15 14 14 12 12 12 12 13 12 10 9 10 11 11 10 10 10 8 7 8 8 8 8 8 7 7 7 6 5 6 5 2 4 6 8 10 10 9 9 10 11 9 10
7 6 4 6 5 3 4 5 11 10 3 2 6 3 4 3 2 4 6 6 4 3 4 7 9 10 9 9 8 8 8 8 8 8 9 12 14 15 14 14 17 18 15 14 14 13 13 15 15 15 15 14 14 13 13 13 12 11 10 9 9 9 9 8 9 9 10 10 9 9 9 8 8 9 9 9 8 6 5 6 6 6 6 7 8 6 7 7 7 9 10 9 10 10 11 9 9
6 7 7 7 7 6 3 7 11 7 2 3 8 3 5 1 4 5 6 4 5 3 4 5 6 7 7 7 8 9 10 9 9 8 8 10 13 16 18 17 17 19 19 18 17 14 13 14 15 15 15 14 14 13 12 12 11 11 9 8 8 8 7 7 8 8 8 8 9 9 9 8 8 9 10 9 8 6 5 5 5 6 7 7 8 7 7 7 5 7 9 9 10 11 11 9 8
5 6 10 12 11 6 5 14 12 5 2 3 6 3 4 3 3 6 4 4 6 4 6 6 5 6 7 8 7 8 8 9 9 9 9 10 12 15 18 20 21 22 22 21 20 17 14 14 14 14 15 14 13 12 12 12 11 10 10 10 10 9 9 8 8 7 6 6 7 8 8 8 8 8 8 7 6 5 4 3 4 5 6 7 7 6 5 5 6 6 6 7 11 11 10 9 8
6 6 8 10 8 5 5 13 9 4 3 7 7 4 2 4 4 6 5 5 6 5 6 7 6 6 7 8 8 7 8 8 7 8 8 9 11 13 15 19 22 24 26 24 21 18 15 13 13 14 14 14 13 13 12 12 11 10 10 11 11 10 9 8 7 5 4 5 7 7 6 6 7 6 4 4 4 4 3 3 4 4 4 5 5 5 4 4 5 4 3 5 10 12 10 8 9
6 8 7 4 2 3 5 10 6 4 3 4 6 4 3 2 6 6 6 6 6 5 6 6 6 7 7 9 9 9 9 9 8 8 9 9 12 14 16 17 16 16 20 22 21 19 17 14 13 13 13 14 14 13 13 13 12 11 11 11 10 9 8 6 4 3 4 5 5 5 3 3 4 4 3 2 2 2 3 3 3 1 1 3 5 6 6 5 3 3 3 3 5 8 9 9 8
9 10 5 1 2 3 5 8 5 4 4 2 6 3 4 3 5 1 6 7 7 8 8 7 7 8 8 9 10 9 10 10 9 8 9 9 12 15 16 17 16 15 15 16 18 19 18 16 15 13 12 14 14 13 13 13 12 11 11 11 10 8 7 5 4 3 4 5 3 2 2 2 2 2 2 2 3 3 2 2 2 2 2 3 3 4 4 5 4 3 5 4 3 4 5 8 8
10 8 3 4 3 2 1 5 5 4 4 4 8 4 4 3 4 1 4 5 8 9 8 7 8 8 9 9 9 10 9 8 7 6 7 8 12 14 14 15 18 18 17 15 15 16 17 18 16 13 12 13 13 12 12 11 11 11 11 11 9 8 6 5 5 5 6 4 1 1 2 2 1 2 3 4 5 5 3 3 3 2 1 3 3 3 4 5 5 3 3 4 5 4 4 6 8
6 1 3 6 5 3 3 3 4 4 1 6 8 8 5 0 4 3 4 5 8 9 6 6 7 8 9 10 9 10 8 7 6 6 6 8 11 12 12 14 14 15 16 16 14 14 16 18 16 13 11 12 12 11 11 10 10 10 11 10 9 7 7 7 7 6 5 3 2 2 2 2 2 4 4 4 7 7 6 6 5 4 3 4 3 3 4 5 5 2 2 3 3 5 6 7 8
1 3 4 4 5 4 5 5 4 3 4 7 5 8 6 2 4 5 7 7 7 10 10 10 11 10 9 9 9 9 8 8 7 6 6 7 9 9 10 11 11 13 14 15 15 16 17 16 15 13 12 12 12 12 11 9 9 10 10 9 9 8 8 8 7 5 4 3 2 3 2 3 3 3 4 4 5 5 5 7 8 6 5 4 1 2 3 4 4 2 2 3 4 5 6 7 8
3 4 5 3 3 4 3 3 2 3 6 5 5 8 4 2 5 6 9 9 7 10 11 13 13 11 10 9 9 9 8 9 8 6 6 6 7 8 10 12 12 13 14 15 16 16 17 16 16 16 14 13 13 12 11 9 9 9 9 9 9 8 7 6 6 4 3 2 1 2 1 2 3 4 2 3 5 6 6 6 6 5 5 4 2 2 2 3 3 1 2 4 5 6 6 5 6
3 3 3 4 2 2 2 4 1 2 6 4 4 5 2 2 4 4 7 8 8 10 10 13 14 13 11 9 10 10 9 9 7 7 7 6 7 9 12 14 15 14 15 16 17 17 17 17 18 18 15 14 13 11 10 9 8 8 8 8 7 6 5 4 4 4 4 3 2 2 1 1 3 6 3 3 5 8 9 9 9 7 6 4 3 3 2 2 2 2 3 4 5 6 7 7 7
2 5 5 4 4 4 3 3 2 3 5 3 1 3 3 3 3 4 4 2 4 7 7 10 11 11 9 8 11 11 9 8 7 7 7 7 9 12 13 14 16 16 16 16 17 17 17 18 18 17 16 14 12 10 10 10 10 9 9 7 6 6 6 5 5 4 4 3 2 2 1 1 4 6 4 6 7 9 9 8 7 4 3 2 2 2 2 2 2 2 3 3 4 5 6 7 8
4 3 5 2 5 5 3 3 4 3 1 2 2 1 2 3 2 2 3 3 4 6 7 9 10 9 9 9 11 10 9 8 7 7 7 7 10 13 14 15 15 16 17 17 17 18 18 17 16 15 15 14 12 12 12 10 9 9 8 7 7 7 5 3 4 4 3 2 1 3 2 4 5 6 9 8 7 6 5 3 2 2 2 2 2 2 2 3 3 4 4 4 5 5 6 6 7
2 2 3 5 4 6 3 2 1 3 2 1 1 1 1 2 3 5 6 5 5 6 8 10 10 11 11 10 10 10 9 9 8 7 7 8 10 13 15 16 16 17 17 18 19 19 19 17 15 14 14 15 14 13 11 10 10 10 10 8 8 7 5 4 5 4 3 2 2 2 1 4 4 8 9 6 4 2 2 1 1 3 2 2 3 3 4 4 5 5 5 5 4 5 6 7 7
3 2 5 3 2 3 2 1 2 3 1 1 1 3 1 1 1 1 2 2 3 6 8 9 9 10 11 9 10 10 9 9 8 8 8 8 10 13 14 16 18 18 18 18 18 18 18 16 16 16 16 15 14 12 12 12 12 11 10 8 8 7 6 6 5 4 3 3 1 2 2 2 6 8 6 3 3 2 3 4 4 2 0 2 3 4 5 4 4 4 4 5 5 6 7 8 8
5 3 2 3 2 1 1 1 1 0 1 1 1 1 1 4 4 4 6 6 6 7 7 9 10 9 9 9 10 10 9 8 7 7 7 7 9 12 15 16 17 18 18 18 18 18 18 17 16 16 15 13 13 13 14 13 11 10 9 8 9 8 6 6 5 4 2 1 1 2 1 5 6 4 3 3 2 2 2 2 1 1 2 3 4 4 3 2 3 4 6 7 7 7 8 9 9
1 3 3 1 3 3 2 2 3 3 2 2 2 1 3 5 5 8 11 9 9 9 7 8 9 8 9 9 9 9 9 8 8 7 7 7 9 13 17 18 18 19 20 20 20 20 19 17 16 16 14 13 15 16 14 12 12 12 11 11 9 8 6 4 3 3 2 1 4 4 2 7 5 2 2 2 1 2 2 1 2 1 2 3 4 3 3 3 5 7 9 9 8 8 9 10 10
2 0 1 2 2 2 2 2 2 4 3 3 3 3 5 5 5 9 11 9 10 11 10 8 7 8 9 10 9 9 9 9 9 8 8 8 10 14 17 19 20 21 22 22 22 21 20 18 17 16 15 15 15 15 13 12 13 13 12 11 8 6 6 4 2 2 0 3 5 3 4 6 2 0 1 2 2 2 2 2 2 1 3 4 5 5 5 5 7 8 9 9 9 9 10 12 13
7 5 5 5 4 3 2 3 3 2 3 4 5 3 6 5 3 6 9 9 9 10 11 8 7 9 10 10 11 10 10 10 10 10 10 8 9 14 18 20 21 22 22 22 22 22 20 19 18 17 16 15 15 14 13 13 13 12 11 9 8 7 6 4 3 2 1 2 3 2 2 1 1 2 2 2 2 2 2 2 4 5 5 5 6 6 6 7 9 9 9 9 10 10 11 12 13
Wind_Direction
183 174 181 198 201 201 191 130 129 78 206 234 236 215 257 21 28 309 350 20 25 14 348 338 319 206 153 127 137 127 33 111 174 146 184 149 146 152 157 158 155 152 150 149 148 148 148 149 149 148 148 145 143 141 141 139 138 137 135 135 133 130 129 129 130 129 129 128 128 130 131 133 135 138 140 140 141 142 142 143 146 150 157 163 168 167 167 172 176 182 186 190 188 184 188 184 176
179 175 180 192 192 185 63 176 119 10 233 259 267 175 322 11 41 9 26 26 9 349 336 320 330 340 121 108 113 106 31 10 98 113 105 131 137 149 159 158 154 151 150 149 150 150 150 152 152 150 149 147 145 143 141 140 140 138 136 136 134 131 130 130 130 130 129 128 128 128 130 132 135 138 140 141 141 141 141 143 147 152 158 163 168 168 167 170 178 184 185 188 188 185 185 185 180
181 175 170 169 159 136 54 345 107 341 267 263 285 275 3 56 59 19 68 38 343 341 336 311 352 348 36 76 51 60 54 20 95 102 115 134 135 150 159 157 153 152 151 150 151 152 153 154 153 152 151 149 147 145 143 142 141 138 137 136 133 132 131 131 131 130 129 127 126 126 128 129 133 135 137 139 140 140 140 141 145 152 159 164 168 168 169 175 184 187 187 187 187 187 182 183 183
180 176 168 156 107 16 94 7 131 165 295 314 296 315 35 89 80 2 49 22 300 13 35 350 44 297 53 90 88 73 87 70 101 108 127 144 146 152 157 155 154 152 152 153 154 154 155 156 154 154 153 150 149 147 145 143 141 138 137 135 133 132 132 132 132 131 128 128 127 127 128 129 131 132 134 135 136 137 136 138 141 149 156 164 167 167 174 183 196 197 197 192 190 197 190 184 183
172 172 177 161 146 354 116 44 107 104 345 325 298 327 36 92 30 15 50 287 296 28 319 176 97 239 125 96 106 88 113 114 111 113 121 140 147 151 154 155 154 153 154 155 155 155 155 156 155 155 152 150 150 148 147 144 141 138 137 135 134 134 135 135 134 132 130 129 128 129 129 129 131 131 133 133 134 134 134 138 144 149 154 159 166 171 178 187 202 204 205 207 200 202 205 197 185
160 159 176 159 182 155 91 68 324 324 14 320 327 322 31 90 40 3 205 238 25 47 311 351 96 132 85 35 35 76 138 129 118 120 126 136 145 151 154 155 155 153 155 157 157 155 155 157 156 155 152 151 152 149 147 144 141 139 138 137 136 136 137 137 135 133 132 132 131 131 131 130 132 131 131 132 134 137 140 143 146 150 154 160 169 175 178 181 189 191 197 210 211 206 209 209 196
155 149 158 94 348 86 76 70 315 314 51 338 339 302 24 64 203 218 251 269 43 9 16 13 358 93 63 341 50 29 104 128 122 128 134 136 144 152 154 154 153 153 157 159 158 156 157 158 156 156 154 153 151 148 147 144 142 140 140 140 140 141 140 139 136 134 134 134 134 133 133 132 131 131 132 133 134 137 141 143 147 151 156 164 171 171 169 169 173 183 191 201 210 210 206 204 201
158 155 350 114 341 48 76 49 335 327 47 344 351 42 68 47 242 226 4 54 43 343 8 350 332 86 41 12 68 13 86 121 125 130 135 138 146 152 152 152 151 154 159 161 159 156 159 159 157 159 158 154 149 147 147 145 144 142 143 145 144 143 142 140 138 137 137 135 136 135 135 135 134 135 135 135 135 134 136 139 145 151 156 158 163 162 164 168 171 185 191 192 200 203 202 200 198
154 154 324 97 21 41 67 32 344 20 28 331 12 29 71 86 293 40 68 69 74 25 348 327 3 108 92 59 81 14 73 119 129 131 135 141 149 151 150 151 153 157 161 162 159 157 160 160 159 160 158 155 152 148 148 149 148 147 148 148 146 144 143 141 139 138 138 137 136 136 136 137 138 140 139 140 142 142 142 143 145 150 152 151 155 158 164 167 170 183 188 189 192 193 195 198 199
128 305 257 76 56 33 27 21 319 2 23 22 45 20 360 265 181 126 105 83 48 35 336 6 57 96 114 75 87 22 62 126 133 133 136 141 149 150 148 154 158 160 163 163 158 159 161 161 161 159 157 156 157 153 151 153 154 154 151 149 146 145 143 141 141 140 139 139 139 138 139 140 140 142 144 146 149 153 153 150 152 151 151 154 154 154 158 161 167 173 181 185 184 189 190 191 196
296 278 195 71 62 39 355 24 314 2 39 84 80 77 333 316 355 86 96 96 66 35 304 6 66 85 93 76 94 15 86 136 140 138 140 143 146 149 152 159 163 163 164 162 159 161 161 163 162 159 158 157 160 157 154 155 159 158 153 151 149 147 145 143 143 142 142 142 143 142 142 142 144 146 149 151 152 155 156 154 156 156 158 162 157 151 153 158 165 164 172 177 175 186 184 180 188
273 247 102 72 97 97 189 138 119 96 55 59 88 100 19 310 313 85 94 105 149 121 36 7 141 137 80 89 227 8 92 139 147 144 145 145 145 150 156 161 165 165 165 162 159 162 163 164 164 160 159 158 160 160 158 158 160 160 156 154 152 150 149 148 148 147 146 147 147 146 145 146 150 154 156 156 155 158 158 158 159 161 166 169 163 154 153 159 161 160 167 169 175 182 176 176 182
241 192 99 27 189 128 132 129 135 118 42 311 108 119 161 263 248 176 120 110 132 104 59 349 149 114 88 105 7 346 98 143 153 150 148 146 145 149 155 162 166 167 166 162 161 164 166 167 166 163 162 162 162 162 164 162 161 161 160 158 156 154 153 153 153 152 152 151 149 145 144 146 148 153 159 162 164 165 165 166 168 170 174 177 174 158 149 156 155 159 164 162 170 171 168 173 177
203 196 117 309 318 115 144 131 150 112 95 250 158 144 185 233 209 201 156 110 52 87 82 313 100 92 109 138 116 227 174 152 155 152 148 146 146 147 153 161 165 166 165 164 164 166 169 170 169 165 165 167 165 165 168 167 163 164 165 163 161 159 159 161 160 158 157 152 146 142 141 139 138 141 147 158 165 169 175 181 182 184 182 182 187 176 157 155 152 153 151 155 164 163 163 164 167
192 226 109 54 360 55 100 119 156 121 150 219 185 157 173 229 203 207 212 126 69 93 131 316 85 108 153 161 160 202 167 152 153 149 147 146 146 147 153 159 162 165 165 167 168 169 171 172 170 167 169 171 169 168 170 171 168 168 169 168 168 168 169 169 165 161 158 154 148 144 142 139 137 136 137 147 159 168 177 183 186 189 186 183 190 191 175 167 154 147 145 149 164 163 159 155 157
185 80 77 42 357 34 64 124 133 110 172 201 172 155 136 189 215 206 269 119 104 116 109 85 314 133 155 157 159 163 150 149 148 145 146 145 143 144 148 152 157 164 168 171 171 172 173 173 172 170 172 174 174 172 171 173 173 173 173 173 174 174 175 173 168 164 160 158 155 151 149 149 145 144 144 146 155 164 170 174 177 181 181 181 189 196 187 185 168 149 154 152 161 162 153 151 155
164 86 57 33 25 35 81 165 150 137 173 157 156 153 122 151 216 117 45 69 93 82 59 48 343 65 122 137 150 148 144 146 144 143 145 146 144 142 143 147 154 162 170 174 174 176 175 175 175 172 175 177 178 176 173 174 175 178 177 175 178 177 177 175 174 172 168 165 163 160 157 158 156 156 157 156 157 160 163 164 167 169 176 179 185 194 191 189 180 156 159 163 166 164 159 155 157
132 124 95 83 118 152 195 164 149 140 150 159 165 154 131 140 154 126 76 64 75 74 48 50 38 47 88 121 141 148 148 148 146 145 148 152 149 145 146 151 156 163 171 175 178 179 179 179 178 175 177 180 180 179 179 176 176 180 178 175 178 178 177 178 177 176 175 173 171 168 163 164 167 169 168 167 165 164 168 169 170 174 182 188 189 195 194 189 181 166 170 189 183 176 183 178 170
147 135 95 175 199 181 178 144 142 143 154 164 165 153 139 144 154 149 132 135 132 108 51 46 79 90 98 113 135 152 157 156 155 153 155 160 156 152 152 155 159 166 172 177 181 183 183 182 181 180 179 181 182 183 183 180 180 184 179 175 178 178 179 180 179 178 178 177 177 176 173 173 176 181 181 178 175 174 180 181 182 187 193 204 212 211 202 198 188 175 180 203 205 200 200 197 189
164 122 86 242 202 155 150 142 146 149 150 154 159 156 143 155 159 148 144 150 160 154 148 125 141 151 132 117 132 154 162 160 161 160 162 164 160 157 156 159 163 170 175 179 183 185 188 187 185 184 183 183 183 185 186 183 185 188 184 179 181 180 179 181 182 182 182 180 180 180 183 186 188 192 191 189 189 192 195 196 198 202 206 208 217 223 208 200 199 186 185 205 215 215 210 203 204
154 121 144 201 168 136 164 149 140 140 149 157 157 149 154 171 160 138 140 134 204 219 200 172 164 167 150 132 142 163 164 160 163 165 166 165 163 162 162 166 168 171 176 180 184 187 191 192 190 188 187 186 187 189 188 186 187 190 189 185 185 185 183 184 185 186 186 183 183 184 191 200 205 206 203 201 200 204 209 209 211 212 218 214 214 225 216 204 207 198 193 205 214 216 218 210 208
89 119 158 174 161 147 180 159 143 146 150 151 152 157 164 165 157 162 155 151 212 215 210 198 170 168 157 146 154 170 166 162 167 169 171 167 164 166 167 168 169 171 173 179 186 189 193 196 194 192 190 190 192 193 191 189 190 191 191 189 188 190 189 188 188 189 189 188 189 193 201 213 222 226 223 218 211 211 216 220 220 219 223 223 219 223 218 209 209 208 206 211 211 210 222 223 217
108 157 163 165 159 139 166 159 148 151 144 154 164 169 154 151 173 177 171 188 212 186 179 193 179 156 146 146 153 168 173 169 167 171 177 171 165 168 170 169 170 172 174 181 186 189 195 197 197 195 193 193 194 196 196 195 196 194 191 190 191 190 190 191 191 192 194 196 199 203 211 221 229 236 242 240 230 221 222 227 226 225 227 227 224 219 214 209 207 214 218 220 216 215 227 233 228
117 174 179 152 135 125 140 136 142 149 152 166 159 148 151 161 171 166 184 212 166 152 158 168 153 132 135 146 159 170 179 176 171 179 182 177 170 169 173 174 174 175 176 182 185 188 195 197 198 197 195 196 195 198 200 202 204 198 191 191 193 191 191 193 193 194 198 202 206 210 218 226 233 243 254 258 247 234 229 232 231 229 229 229 224 217 216 214 210 219 225 227 224 228 237 239 236
122 169 179 135 118 122 124 117 129 137 145 149 133 151 176 172 151 148 185 186 128 132 131 141 137 132 140 154 165 172 183 185 177 180 183 184 177 169 174 176 177 178 179 183 184 189 195 196 198 199 198 198 198 201 203 206 209 202 196 194 194 196 197 198 198 201 204 206 210 213 219 228 234 241 253 266 258 247 239 234 234 234 231 230 224 219 222 221 220 226 230 235 235 238 245 242 239
171 162 162 135 128 133 125 122 132 131 135 131 129 162 194 181 140 132 182 165 138 126 120 134 141 148 158 159 167 172 187 197 185 183 185 188 183 178 179 174 174 183 185 185 184 190 195 195 197 199 199 199 200 204 205 209 212 206 203 202 201 203 205 209 210 214 217 218 218 215 218 227 229 230 239 263 264 257 247 236 234 237 234 232 227 224 225 224 229 235 236 241 241 242 247 241 233
182 142 149 145 141 145 139 138 147 132 120 140 139 162 195 189 134 130 190 166 144 129 129 146 151 164 172 166 171 172 190 204 191 179 178 187 184 181 185 178 173 185 188 185 185 191 193 192 197 200 199 199 202 207 210 212 214 209 206 211 213 212 214 221 223 225 231 230 226 221 222 226 223 215 213 232 206 243 246 236 233 235 234 231 227 227 227 226 231 240 246 248 245 243 247 242 229
148 122 130 145 140 142 143 140 160 135 103 153 133 145 207 177 162 172 174 163 150 144 147 156 158 169 172 171 175 172 193 205 192 175 171 183 181 175 184 186 182 184 186 185 186 188 188 188 195 199 197 199 204 209 214 215 217 215 211 221 229 224 222 223 223 227 234 230 225 228 233 228 223 220 197 173 128 128 201 224 227 229 229 224 222 226 228 228 231 238 247 251 249 245 244 241 231
123 109 112 143 132 143 168 150 168 146 143 167 116 49 276 199 216 179 160 161 155 150 157 165 168 171 170 173 178 182 195 202 198 186 182 179 173 172 178 185 191 196 188 185 187 183 181 189 194 194 193 199 204 208 215 218 221 218 211 221 228 225 221 217 221 227 228 218 219 230 233 223 221 226 229 185 126 119 143 187 206 213 217 216 216 223 228 227 229 236 243 250 253 247 243 243 237
128 102 101 130 111 174 207 172 166 152 154 152 108 43 255 245 222 167 156 161 152 153 167 172 175 175 175 177 179 194 197 199 203 195 195 187 176 172 171 175 184 196 189 183 185 181 181 193 195 190 192 198 201 206 214 215 215 210 202 201 201 208 212 215 224 228 228 224 220 218 211 209 215 225 239 243 199 128 138 161 182 199 210 214 218 230 234 225 225 233 240 249 255 251 249 250 244
116 48 55 114 107 225 232 203 164 160 184 132 106 184 244 250 203 165 164 163 154 161 175 174 178 179 180 183 182 195 198 200 208 201 199 197 189 170 170 179 164 171 191 187 185 181 181 192 192 189 194 199 196 200 205 203 203 201 200 199 193 199 204 208 221 226 229 236 216 198 194 201 210 219 231 240 243 196 159 164 180 194 202 209 219 232 235 232 234 236 238 244 251 249 248 253 253
57 95 308 226 132 219 249 238 177 163 176 127 115 195 256 243 198 177 169 165 160 165 177 177 177 180 180 184 184 192 199 201 207 207 205 203 198 177 176 190 160 133 192 191 186 182 183 190 189 188 195 199 196 193 194 193 197 201 205 207 205 207 205 207 218 225 228 223 202 195 196 201 206 214 228 242 256 247 205 186 196 203 206 213 218 223 232 243 248 246 240 242 248 248 244 249 254
356 167 233 206 136 181 227 246 207 174 123 135 150 177 229 238 207 196 173 166 166 166 178 183 178 180 179 180 184 187 192 197 205 209 208 206 204 193 193 199 172 155 167 180 182 185 186 189 189 190 196 200 199 199 200 198 199 204 209 212 212 213 213 212 217 223 228 222 205 203 209 216 223 233 241 246 254 255 240 221 219 232 238 234 228 232 239 244 247 246 242 240 247 248 245 247 249
300 150 205 231 171 178 201 248 231 201 132 162 187 196 227 228 194 199 187 167 165 170 180 183 178 178 179 178 182 186 186 192 203 205 205 205 204 198 196 200 189 182 183 172 177 184 184 186 189 192 197 200 199 201 204 203 202 204 208 212 215 217 219 218 219 225 231 233 229 229 235 241 248 254 253 251 252 260 258 243 232 239 245 242 244 245 248 254 254 246 240 242 249 246 243 246 248
254 229 196 239 192 186 207 208 193 179 156 166 178 219 247 233 182 195 201 168 165 179 182 179 177 175 177 180 183 189 189 196 206 201 200 202 201 194 189 192 185 180 184 177 172 176 177 182 187 191 194 196 197 199 200 199 199 202 204 209 214 218 221 220 222 227 233 238 242 246 250 256 258 256 256 258 258 260 264 258 242 239 240 237 247 251 253 265 269 252 244 252 254 246 244 249 249
253 260 223 194 195 223 217 202 176 161 150 174 184 221 243 207 182 196 204 174 170 185 179 172 176 173 173 178 185 187 190 201 204 197 196 191 186 189 189 183 172 171 179 177 170 168 168 172 178 182 185 188 190 191 192 192 192 194 199 204 210 215 218 220 223 229 236 240 246 253 259 263 260 258 262 266 268 263 263 267 258 247 240 236 254 266 269 271 266 252 251 263 260 250 249 250 246
256 266 271 232 201 251 226 191 182 157 144 211 203 220 239 193 185 199 195 175 185 189 173 174 175 170 174 179 184 185 191 198 186 186 188 177 169 188 198 183 162 166 174 174 173 169 166 167 171 174 175 180 183 184 186 188 188 189 193 201 208 214 218 224 228 234 242 249 257 262 266 265 260 265 272 272 271 265 263 268 269 261 251 247 259 274 279 279 274 265 268 284 271 253 249 246 237
259 259 276 285 205 243 233 180 175 154 140 221 206 194 246 213 192 202 179 169 212 204 172 177 176 169 174 179 181 182 179 162 160 175 176 169 168 183 202 194 177 174 172 175 181 177 172 171 174 176 175 178 181 183 186 189 192 195 201 210 217 222 226 232 238 243 250 257 265 266 266 265 267 273 272 269 265 261 264 268 273 269 261 263 263 260 266 265 268 279 287 281 265 252 251 249 230
262 259 270 284 231 240 249 174 160 151 152 220 192 156 250 241 198 200 184 175 222 222 176 171 170 167 172 176 174 164 151 145 155 174 171 167 172 180 189 192 192 191 185 186 190 187 183 180 183 186 183 183 185 188 193 196 201 206 214 223 226 229 231 232 237 243 249 255 260 262 264 267 276 276 270 275 274 265 264 266 268 270 276 285 285 268 252 237 237 263 276 260 247 247 250 251 231
247 246 254 269 237 203 246 183 153 158 173 177 142 123 282 267 145 205 209 194 215 226 161 157 166 169 170 169 164 152 147 153 163 175 168 156 167 181 185 186 193 198 196 196 198 198 195 192 193 196 196 195 195 197 201 205 208 211 217 222 220 222 225 223 227 235 243 250 255 258 264 269 275 273 271 282 288 277 269 269 269 284 303 297 290 287 276 263 245 256 268 253 237 237 239 244 237
242 223 216 241 243 230 210 138 140 150 21 86 119 72 307 238 153 212 234 216 204 179 115 131 164 162 152 151 153 154 151 156 165 173 171 160 164 178 186 188 190 194 197 199 202 203 203 201 200 201 204 204 201 202 206 210 211 212 215 211 204 209 214 220 231 241 249 258 264 264 266 270 273 272 269 278 291 285 276 284 290 299 304 293 291 287 271 270 263 256 264 254 235 228 229 235 240
279 234 213 220 231 250 118 120 130 120 5 207 146 89 297 268 204 217 237 220 205 177 137 145 163 152 142 146 152 156 156 161 170 174 175 174 173 176 184 189 188 191 197 199 202 205 205 203 204 206 206 205 203 206 212 217 217 219 218 207 201 205 214 226 237 248 257 266 271 268 265 268 275 276 269 274 287 281 274 293 299 295 292 292 297 286 261 265 267 255 252 246 238 234 228 226 235
284 253 228 213 207 234 142 130 139 141 189 216 180 137 256 290 266 223 210 206 208 195 166 163 164 158 151 154 159 158 161 167 174 180 180 176 175 173 182 191 192 194 197 198 201 206 206 204 207 208 206 207 208 210 217 222 224 225 220 212 211 214 223 234 243 253 260 267 272 267 263 263 264 266 267 274 273 264 275 285 280 281 287 299 298 284 280 288 280 264 245 247 246 240 232 227 229
255 251 248 210 154 254 181 139 146 171 157 202 191 136 116 273 265 218 180 186 210 217 195 175 168 168 157 158 164 162 164 171 175 182 184 180 179 180 185 191 196 198 196 194 196 200 204 204 205 203 203 210 214 217 224 229 230 228 219 214 217 222 229 236 243 250 252 260 263 252 240 232 232 238 263 285 272 260 270 260 253 286 340 322 304 300 311 318 307 273 245 244 245 238 238 238 231
243 248 266 62 74 267 187 134 137 152 107 184 224 154 111 252 281 198 155 178 211 220 208 189 178 172 161 160 166 164 164 169 175 181 182 178 176 179 181 180 187 196 195 194 194 194 196 197 197 198 204 213 217 222 229 231 230 224 217 215 217 222 232 240 244 241 232 237 240 218 195 178 187 240 278 271 268 264 232 198 165 111 53 15 339 333 355 15 12 318 270 254 239 240 246 244 238
244 247 306 26 48 281 184 119 119 109 110 217 225 169 119 263 283 114 149 194 217 216 208 190 182 174 163 162 161 159 158 157 160 165 164 159 159 167 171 167 177 187 187 188 192 191 187 187 191 198 205 211 215 221 224 221 217 215 215 217 221 226 233 237 231 220 210 204 197 206 214 198 198 306 290 243 244 252 226 192 175 162 106 80 83 53 34 23 17 352 301 286 268 275 269 252 245
239 269 28 10 12 7 13 62 93 79 301 250 215 169 131 257 273 215 181 210 207 194 191 181 181 176 166 165 158 154 150 139 140 142 133 131 140 154 161 158 168 180 178 175 178 183 181 180 185 191 195 198 203 209 207 208 213 217 219 219 223 227 225 216 206 202 191 169 140 152 201 248 267 284 282 244 234 245 243 226 212 217 207 143 111 13 359 3 9 25 9 347 308 294 285 274 265
215 74 71 14 344 2 12 360 38 94 257 263 196 150 121 125 248 228 216 230 201 177 177 176 179 177 168 164 158 153 144 136 142 142 133 128 131 144 150 151 165 179 177 168 167 174 177 176 177 176 177 184 192 196 200 213 220 217 218 220 221 215 204 194 189 182 157 139 153 167 202 271 286 296 288 251 221 218 224 224 227 237 218 166 117 356 360 7 7 10 6 357 340 327 310 290 279
49 71 70 62 331 353 358 320 358 181 250 266 148 123 106 202 239 223 220 231 205 181 179 173 171 171 166 161 153 149 143 143 149 148 149 149 142 147 148 150 162 172 175 171 166 169 173 174 172 169 173 182 190 196 204 218 218 212 215 216 211 203 197 196 198 198 181 157 148 168 250 294 348 357 326 192 173 158 159 180 195 192 164 143 123 89 47 9 360 342 323 316 309 314 318 308 294
88 136 113 121 129 46 289 275 312 240 272 282 132 113 96 271 273 225 220 229 198 182 177 166 163 163 161 156 146 146 149 151 155 157 158 157 151 151 153 156 161 165 170 170 165 167 171 172 172 172 178 185 192 198 203 203 195 193 193 189 188 187 179 167 166 175 182 164 124 110 353 319 17 12 22 143 134 131 134 139 145 146 141 131 100 75 38 5 352 327 319 310 300 302 307 311 313
191 165 137 141 159 151 201 228 214 235 273 297 51 88 145 198 254 221 224 255 166 161 157 148 150 154 147 140 141 146 155 156 160 164 161 158 156 153 154 159 161 162 166 164 162 168 172 173 174 175 180 185 190 188 181 175 169 169 170 169 168 161 147 139 141 142 150 151 139 147 159 330 358 26 85 131 131 132 132 130 133 133 125 99 48 9 329 317 316 323 318 305 301 309 315 315 318
247 144 113 168 186 158 176 199 184 186 304 342 17 40 196 209 279 322 38 52 107 123 126 132 140 145 135 135 144 149 157 161 164 166 159 156 157 154 155 159 160 161 161 160 163 171 175 175 176 176 177 178 175 167 164 162 164 168 166 160 159 156 152 158 157 143 143 158 225 200 188 348 7 84 120 128 124 129 126 120 127 86 56 356 330 319 324 329 323 318 312 306 302 309 323 329 331
265 108 176 229 177 142 171 254 316 63 78 345 73 82 317 327 335 357 33 58 100 112 127 141 147 145 138 142 150 153 160 165 168 168 161 160 161 158 157 159 162 162 159 160 166 173 176 175 173 171 169 166 164 163 160 154 154 156 152 147 152 158 161 163 152 140 161 203 227 215 295 10 69 119 125 111 84 66 51 70 72 62 49 329 326 327 318 311 308 306 304 310 313 311 316 322 327
132 206 221 236 56 89 129 170 352 27 93 231 154 144 175 239 269 352 53 93 138 136 141 147 149 146 144 149 155 158 161 164 166 165 162 164 163 159 159 162 164 164 162 164 168 172 172 169 165 161 158 160 162 162 157 152 148 148 148 150 156 163 167 165 164 169 195 212 216 276 303 85 113 124 119 77 39 32 71 100 92 77 121 294 313 308 303 297 297 306 310 316 318 315 316 316 319
167 194 184 111 73 360 2 151 176 54 183 201 133 112 185 213 209 176 178 190 174 156 148 150 155 150 146 150 156 156 154 155 161 162 162 167 164 160 161 163 163 163 163 164 165 165 164 162 159 157 157 162 165 162 160 162 164 163 162 164 165 169 174 175 189 199 190 160 53 344 269 143 128 123 94 44 17 35 73 136 177 275 251 286 311 306 307 306 308 324 322 316 310 306 310 315 321
254 29 24 117 156 168 212 207 162 152 182 166 147 242 248 231 210 182 186 189 170 161 159 161 163 152 146 152 155 154 154 157 162 165 168 171 169 167 166 164 163 164 164 162 160 160 160 160 161 161 159 159 161 162 164 170 176 175 172 174 177 178 176 173 192 194 184 265 341 351 161 153 139 117 62 17 320 345 348 226 211 269 266 293 312 305 294 287 298 313 315 313 307 301 305 313 318
221 40 233 209 182 170 199 231 156 134 150 146 149 222 259 251 209 185 183 180 172 167 163 165 163 149 148 152 153 156 160 161 164 166 171 176 171 169 168 164 161 162 161 159 158 158 161 163 162 161 159 156 159 166 171 175 179 180 178 177 173 168 167 156 142 150 99 335 350 21 145 160 155 218 310 294 266 315 341 174 179 290 289 303 306 293 283 281 288 301 310 313 311 308 310 312 313
184 187 194 181 185 169 146 274 289 105 131 153 152 191 265 262 194 173 174 171 174 167 157 157 158 152 153 156 157 160 162 164 167 168 170 173 164 159 159 157 156 156 155 154 156 158 161 161 160 161 164 166 171 176 180 182 182 181 178 171 159 154 159 154 162 223 284 3 18 45 149 184 298 308 296 280 257 274 280 286 304 294 278 288 297 292 292 291 288 294 305 308 308 312 316 316 315